User: anonymous   Login
Location: Unspecified
(0.0000°N, 0.0000°E)
Time: 08:44:24
(UTC+00:00)
Language:

GOSAT - Orbit

View from above orbital plane
View from above orbital plane
View from above satellite
View from above satellite

Ground track
Ground track

The orbit data is extracted from the following two-line orbital elements,

1 33492U 09002A   16150.83926736 -.00000064  00000-0 -27159-5 0  9990
2 33492  98.0964 260.2935 0001653  73.8575 286.2814 14.67534622393608
Epoch (UTC): 29 May 2016 20:08:32
Eccentricity: 0.0001653
inclination: 98.0964°
perigee height: 668 km
apogee height: 670 km
right ascension of ascending node: 260.2935°
argument of perigee: 73.8575°
revolutions per day: 14.67534622
mean anomaly at epoch: 286.2814°
orbit number at epoch: 39360

The dashed part of the orbit path shows where the satellite is in the earth's shadow,  

DLR